www.pogodaiklimat.ru

Погода и климат >> Архив погоды >> ОАЭ >> Абу-Даби Батин аэропорт


ПОГОДА в Абу-Даби Батин аэропорту

  • Прогноз погоды в Абу-Даби Батин аэропорту
  • Монитор погоды в Абу-Даби Батин аэропорту

АРХИВ ПОГОДЫ в Абу-Даби Батин аэропорту

Время (UTC), дата Ветер
(напр.,м/с)
 
Видим.   Явления Облачность Т
(С)
Тd
(С)
f
(%)
Тe
(С)
Тes
(С)
Комфортность P
(гПа)
Po
(гПа)
Тmin
(С)
Tmax
(С)
R
(мм)
R24
(мм)
S
(см)
06 17.02 Ю 5 10 км 5/0
[Ac trans]
+23.8 +13.5 52 +26 +30 жарко 1015.5 1015.1 +21.1
09 17.02 З 2 10 км 9/0
[Ac trans]
+26.2 +11.8 41 +28 +34 жарко 1014.0 1013.6
12 17.02 СЗ 6 10 км 9/1 600 м
[Sc Ac trans]
+23.8 +18.3 71 +28 +29 душно 1012.9 1012.5
15 17.02 СЗ 7 10 км в посл. час дождь 9/5 450 м
[St Ac trans]
+21.8 +17.9 79 +26 +26 душно 1014.1 1013.7
18 17.02 СЗ 6 10 км {дождь} 5/1 1050 м
[Sc Ac trans]
+21.1 +12.1 56 +23 +23 комфорт 1015.4 1015.0 +26.2
21 17.02 СЗ 5 10 км 4/0
[Ac trans]
+19.6 +11.7 60 +21 +21 комфорт 1015.3 1014.9
00 18.02 СЗ 5 10 км 3/0
[Ac trans]
+18.5 +11.4 63 +19 +19 1014.5 1014.1 0.0
03 18.02 СЗ 5 10 км 3/0
[Ac trans]
+18.3 +10.7 61 +18 +18 1015.6 1015.2
06 18.02 СЗ 7 10 км 1/0
[Ac trans]
+21.4 +8.8 44 +23 +25 комфорт 1016.5 1016.1 +17.7
09 18.02 СЗ 7 10 км 4/1 1050 м
[Sc Ci fib]
+22.5 +8.7 41 +24 +27 комфорт 1014.5 1014.1
12 18.02 СЗ 7 10 км 6/0
[Ac trans Ci fib]
+21.7 +9.4 45 +23 +24 комфорт 1012.1 1011.7
15 18.02 СЗ 4 10 км 6/0
[Ac trans]
+20.3 +9.3 49 +22 +22 комфорт 1011.8 1011.4
18 18.02 З 3 10 км 9/0
[Ac trans]
+20.0 +10.3 54 +22 +22 комфорт 1012.3 1011.9 +22.9
21 18.02 З 2 10 км 5/0
[Ac trans]
+19.5 +10.3 55 +21 +21 комфорт 1011.6 1011.2
00 19.02 З 2 10 км 8/0
[Ac trans]
+19.6 +10.4 55 +21 +21 комфорт 1010.7 1010.3
03 19.02 Ю 2 10 км 8/0
[Ac trans]
+17.8 +13.0 73 +18 +18 1011.0 1010.6
06 19.02 ЮЗ 2 10 км 8/0
[Ac As]
+19.1 +12.0 63 +21 +25 комфорт 1012.3 1011.9 +17.7
09 19.02 ЮЗ 2 10 км 8/0
[Ac trans Ci]
+21.7 +12.4 55 +24 +34 комфорт 1010.2 1009.8
12 19.02 З 3 10 км 8/0
[Ac trans]
+22.3 +11.5 50 +24 +26 комфорт 1009.4 1009.0
15 19.02 СЗ 4 10 км 8/0
[Ac trans]
+20.8 +11.8 56 +23 +23 комфорт 1010.9 1010.5
18 19.02 СЗ 7 10 км 6/0
[Ac trans]
+20.3 +12.3 60 +22 +22 комфорт 1013.7 1013.3 +23.3
21 19.02 СЗ 7 10 км 1/0
[Ac trans]
+19.5 +10.0 54 +20 +20 1014.5 1014.1
00 20.02 СЗ 8 10 км ясно +19.2 +11.6 61 +19 +19 1014.4 1014.0
03 20.02 СЗ 8 10 км 1/1 1000 м
[Sc]
+18.3 +11.2 63 +18 +18 1015.8 1015.4
06 20.02 СЗ 9 10 км 3/3 1050 м
[Sc]
+20.7 +10.0 50 +22 +23 комфорт 1017.9 1017.5 +18.2
09 20.02 СЗ 10 8000 м пыль 1/1 1200 м
[Sc]
+21.8 +9.5 45 +23 +24 комфорт 1017.5 1017.1
12 20.02 СЗ 8 10 км 3/3 1200 м
[Sc]
+21.5 +9.9 48 +23 +24 комфорт 1016.9 1016.5
15 20.02 СЗ 5 10 км 6/6 1050 м
[Sc]
+19.6 +10.7 56 +21 +21 комфорт 1018.1 1017.7
18 20.02 СЗ 3 10 км 5/5 1200 м
[Sc]
+18.7 +9.8 56 +19 +19 1019.9 1019.5 +22.1
21 20.02 СЗ 3 10 км 5/5 1200 м
[Sc]
+18.4 +9.6 56 +19 +19 1019.7 1019.3
00 21.02 З 3 10 км 5/5 1200 м
[Sc]
+18.3 +9.2 55 +19 +19 1019.5 1019.1
03 21.02 СЗ 3 10 км 3/3 1200 м
[Sc]
+16.9 +9.4 61 +17 +17 1020.9 1020.4
06 21.02 СЗ 2 10 км 6/6 1050 м
[Sc]
+19.6 +10.4 55 +21 +25 комфорт 1023.0 1022.6 +16.5
09 21.02 СЗ 4 10 км 3/3 1200 м
[Sc]
+21.3 +8.7 44 +22 +30 комфорт 1021.3 1020.9
12 21.02 С 4 10 км 3/0
[Ci fib]
+20.9 +8.7 46 +23 +26 комфорт 1019.7 1019.3
15 21.02 СЗ 4 10 км 1/0
[Ci fib]
+19.4 +9.7 53 +20 +20 1020.3 1019.9
18 21.02 СЗ 2 10 км 3/0
[Ci fib]
+18.1 +10.1 60 +19 +19 1020.7 1020.3 +22.0
21 21.02 СЗ 2 10 км 3/0
[Ci fib]
+17.1 +11.0 67 +18 +18 1020.1 1019.6
00 22.02 нст 1 10 км 5/0
[Ac trans Ci fib]
+16.2 +10.8 70 +17 +17 1019.0 1018.5
03 22.02 ЮЗ 3 9000 м мгла 5/0
[Ac trans Ci fib]
+15.2 +11.4 78 +15 +15 1019.5 1019.0
06 22.02 Ю 2 10 км 4/0
[Ac trans Ci fib]
+19.4 +13.0 66 +22 +30 комфорт 1021.4 1021.0 +15.1
09 22.02 нст 1 10 км 6/0
[Ac trans Ci fib]
+23.0 +8.5 39 +24 +35 комфорт 1019.3 1018.9
12 22.02 С 3 10 км 8/0
[Ac trans]
+21.9 +10.5 48 +24 +26 комфорт 1016.9 1016.5
15 22.02 С 3 10 км 9/0
[Ac trans]
+19.8 +11.9 60 +22 +22 комфорт 1017.0 1016.6
18 22.02 С 3 10 км 8/0
[Ac trans]
+19.7 +12.6 64 +22 +22 комфорт 1017.9 1017.5 +23.7
21 22.02 С 3 10 км 6/0
[Ac trans]
+19.5 +12.8 65 +21 +21 комфорт 1018.3 1017.9
00 23.02 В 3 10 км 8/1 1050 м
[Sc Ac trans]
+19.7 +13.7 68 +22 +22 комфорт 1016.3 1015.9
03 23.02 СВ 2 8000 м мгла 9/0
[Ac trans]
+19.4 +14.9 75 +22 +22 комфорт 1017.4 1017.0
06 23.02 СВ 3 8000 м мгла 6/0
[Ac trans]
+21.4 +15.1 67 +25 +30 комфорт 1019.1 1018.7 +19.3
09 23.02 СЗ 3 8000 м мгла {дождь} 9/0
[Ac trans]
+23.9 +13.3 51 +26 +32 жарко 1017.8 1017.4
12 23.02 С 4 10 км {дождь} 9/0
[Ac As]
+23.5 +15.4 60 +26 +28 жарко 1015.4 1015.0 0.0
15 23.02 С 3 9000 м мгла 5/0
[Ac trans]
+21.8 +16.1 70 +26 +26 душно 1016.7 1016.3
18 23.02 нст 1 10 км 3/0
[Ac trans]
+21.0 +16.7 76 +26 +26 душно 1017.0 1016.6 +24.1
21 23.02 СВ 1 10 км 3/0
[Ac trans]
+19.8 +15.7 77 +23 +23 комфорт 1015.8 1015.4
00 24.02 В 1 10 км 8/0
[Ac trans]
+18.9 +15.6 81 +21 +21 комфорт 1014.1 1013.7 0.0
03 24.02 СВ 2 8000 м мгла 3/0
[Ac trans]
+19.0 +16.5 85 +21 +21 комфорт 1015.7 1015.3

 

Местоположение метеостанции Абу-Даби Батин аэропорт (ОАЭ): широта 24.43 долгота 54.46 высота над уровнем моря 5 м.

В архиве по умолчанию представлена погода в Абу-Даби Батин аэропорту за последнюю неделю. Архивные данные за месяц целиком и за предыдущие месяцы, начиная с января 2011 года, Вы можете получить, выбрав интересующий диапазон дат из раскрывающегося списка и нажав кнопку "Ввод!".


*Определитесь, кто Вы:
робот инопланетянин человек

Внимание! Время в таблицах - всемирное. Для получения местного времени необходимо прибавить поправку, которая равна 4 ч.

Смотрите также архив погоды в соседних городах и на ближайших метеорологических станциях:

Погода в Абу-Даби (ОАЭ) (19 км)
Погода в Аль-Мактум аэропорту (ОАЭ) (88 км)
Погода в Эль-Айне (ОАЭ) (117 км)
Погода в Дубае (ОАЭ) (127 км)
Погода в Эль-Бурайми (Оман) (136 км)
Погода в Шардже (ОАЭ) (146 км)
Погода на Острове Абу-Муса (Иран) (160 км)
Погода на Острове Сирри (Иран) (165 км)
Погода в Кумейре (Оман) (185 км)
Погода в Рай-эль-Хайма аэропорту (ОАЭ) (199 км)

Пояснения к столбцам:

Ветер - указаны скорость ветра в м/с - средняя за 10 мин, порывы в срок и между сроками (в фигурных скобках) и направление, откуда дует ветер: С - северный, СВ - северо-восточный, В - восточный, ЮВ - юго-восточный, Ю - южный, ЮЗ - юго-западный, З - западный, СЗ - северо-западный.
Видимость - горизонтальная дальность видимости в метрах или километрах. При видимости от 1 до 10 км при отсутствии осадков обычно наблюдается дымка, при ухудшении видимости до 1 км и менее - туман. В сухую погоду видимость может ухудшаться дымом, пылью или мглою.
Явления - указаны атмосферные явления, наблюдавшиеся в срок или в последний час перед сроком; фигурными скобками обозначены явления, наблюдавшиеся между сроками (за 1-3 часа до срока); квадратными скобками обозначены град или гололедные отложения с указанием их диаметра в мм.
Облачность - указаны через наклонную черту общая и нижняя облачность в баллах и высота нижней границы облаков в метрах; квадратными скобками обозначены формы облаков: Ci - перистые, Cs - перисто-слоистые, Cc - перисто-кучевые, Ac - высококучевые, As - высокослоистые, Sc - слоисто-кучевые, Ns - слоисто-дождевые, Cu - кучевые, Cb - кучево-дождевые. Подробнее классификацию облаков см. в Атласе облаков (PDF).
T - Температура воздуха - температура, измеренная на высоте 2 м над землей.
Td - Температура точки росы - температура, при понижении до которой содержащийся в воздухе водяной пар достигнет насыщения.
f - Относительная влажность воздуха - влажноcть воздуха, измеренная на высоте 2 м над землей.
Te - Эффективная температура - температура, которую ощущает одетый по сезону человек в тени. Характеристика душности погоды. При расчете учитывается влияние влажности воздуха и скорости ветра на теплоощущения человека.
Tes - Эффективная температура на солнце - температура, которую ощущает человек, с поправкой на солнечный нагрев. Характеристика знойности погоды. Зависит от высоты солнца над горизонтом, облачности и скорости ветра. Ночью, в пасмурную погоду, а также при ветре 12 м/с и более поправка равна нулю.
P - Атмосферное давление - приведенное к уровню моря атмосферное давление.
Po - Атмосферное давление - измеренное на уровне метеостанции атмосферное давление.
Tmin - Минимальная температура - минимум температуры воздуха на высоте 2 м над землей.
Tmax - Максимальная температура - максимум температуры воздуха на высоте 2 м над землей.
R - Количество осадков - Количество выпавших осадков за период времени, мм. При наведении курсора мыши на число - период времени, за который выпало указанное количество осадков.
R24 - Количество осадков - Количество выпавших осадков за 24 часа, мм.
S - Снежный покров - Высота снежного покрова, см. При наведении курсора мыши на число - состояние снежного покрова и степень покрытия местности в баллах.